Home > Weather > New York > Past weeks

Flag for USA Past 2 weeks in New York, New York, USA

Now
70 °F

Sunny.


Feels Like: 75 °F
Forecast: 67 / 83 °F
Wind: No wind

Location: New York City - Central Park


UV Index: 7 (High)

Visibility: 10 mi


Pressure: 30.01 "Hg

Humidity: 66%

Dew point: 58 °F

Location of New York

Historic Weather in New York

°F

Past Weeks' High & Low Weather Summary

 TemperatureHumidityPressure
High94 °F (Jun 13, 2:51 PM)97% (Jun 14, 8:38 AM)30.07 "Hg (Jun 14, 8:38 AM)
Low53 °F (Jun 7, 6:21 AM)31% (Jun 9, 4:51 PM)29.73 "Hg (Jun 9, 5:51 AM)
Average74 °F66%29.93 "Hg
* Reported Jun 7 6:21 AM — Jun 22 6:51 AM, New York, Weather by CustomWeather, © 2014

Note: Actual official high and low records may vary slightly from our data, if they occured in-between our weather recording intervals... More about our weather records

Advertising

Historic Weather Conditions — Data for Previous 24 hours

 ConditionsComfort  
Time TempWeatherWind HumidityBarometerVisibility
6:51 AM
Jun 22
70 °FSunny.No wind66%30.01 "Hg10 mi
5:51 AM68 °FSunny.5 mph68%29.99 "Hg10 mi
4:51 AM68 °FClear.No wind68%29.98 "Hg10 mi
3:51 AM69 °FClear.3 mph79%29.96 "Hg10 mi
2:51 AM69 °FClear.No wind79%29.96 "Hg10 mi
1:51 AM71 °FClear.3 mph71%29.96 "Hg10 mi
12:51 AM73 °FClear.3 mph66%29.96 "Hg10 mi
11:51 PM
Jun 21
74 °FClear.No wind62%29.94 "Hg10 mi
10:51 PM75 °FClear.No wind58%29.93 "Hg10 mi
9:51 PM76 °FClear.3 mph54%29.92 "Hg10 mi
8:51 PM77 °FClear.6 mph52%29.90 "Hg10 mi
7:51 PM80 °FSunny.8 mph47%29.87 "Hg10 mi
6:51 PM81 °FSunny.N/A44%29.87 "Hg10 mi
5:51 PM82 °FSunny.8 mph43%29.86 "Hg10 mi
4:51 PM82 °FSunny.7 mph43%29.86 "Hg10 mi
3:51 PM82 °FScattered clouds.N/A43%29.86 "Hg10 mi
2:51 PM82 °FSunny.N/A44%29.88 "Hg10 mi
1:51 PM81 °FPassing clouds.5 mph45%29.89 "Hg10 mi
12:51 PM79 °FPartly sunny.7 mph44%29.91 "Hg10 mi
11:51 AM82 °FPassing clouds.9 mph41%29.93 "Hg10 mi
10:51 AM79 °FPassing clouds.N/A50%29.92 "Hg10 mi
9:51 AM76 °FSunny.6 mph58%29.93 "Hg10 mi
8:51 AM76 °FSunny.6 mph56%29.93 "Hg10 mi
7:51 AM74 °FSunny.5 mph60%29.94 "Hg10 mi
Weather by CustomWeather, © 2014

See weather overview